WD6AWP Weather Reports


time (UTC)temp
C
wind
direction
speed
KPH
gust
KPH
rain 1hr
cm
rain 24hr
cm
rain mn
cm
humidity
%
barometer
mb
20260905091541 18 289 0.0 0.0 0.00 0.00 0.00 92 1012.9
20260905090040 18 289 0.0 0.0 0.00 0.00 0.00 93 1013.0
20260905084539 18 289 0.0 0.0 0.00 0.00 0.00 92 1013.0
20260905083037 18 289 0.0 0.0 0.00 0.00 0.00 91 1013.0
20260905081535 18 289 0.0 0.0 0.00 0.00 0.00 92 1013.1
20260905080033 18 289 0.0 0.0 0.00 0.00 0.00 92 1013.2
20260905074532 18 289 0.0 0.0 0.00 0.00 0.00 91 1013.2
20260905073041 19 289 0.0 0.0 0.00 0.00 0.00 91 1013.2
20260905071539 19 289 0.0 0.0 0.00 0.00 0.00 91 1013.2
20260905070027 19 289 0.0 0.0 0.00 0.00 0.00 90 1013.2
20260905064527 19 289 0.0 0.0 0.00 0.00 0.00 89 1013.0
20260905063027 20 289 0.0 0.0 0.00 0.00 0.00 89 1013.0
20260905061529 20 289 0.0 0.0 0.00 0.00 0.00 87 1013.0
20260905060026 20 289 0.0 0.0 0.00 0.00 0.00 87 1013.0
20260905054539 20 289 0.0 0.0 0.00 0.00 0.00 86 1012.9
20260905053025 21 289 0.0 0.0 0.00 0.00 0.00 86 1012.9
20260905051525 21 289 0.0 0.0 0.00 0.00 0.00 86 1012.9
20260905050025 21 289 0.0 6.4 0.00 0.00 0.00 86 1012.9
20260905044523 21 289 4.8 11.3 0.00 0.00 0.00 86 1012.7
20260905043027 21 282 1.6 11.3 0.00 0.00 0.00 85 1012.7
20260905041522 21 283 6.4 14.5 0.00 0.00 0.00 85 1012.5
20260905040023 21 269 9.7 14.5 0.00 0.00 0.00 85 1012.3
20260905034521 22 264 9.7 12.9 0.00 0.00 0.00 85 1012.2
20260905033020 22 276 4.8 16.1 0.00 0.00 0.00 86 1012.0
20260905031520 22 246 8.0 14.5 0.00 0.00 0.00 85 1011.9
20260905030019 22 263 9.7 16.1 0.00 0.00 0.00 85 1011.7
20260905024518 22 283 6.4 16.1 0.00 0.00 0.00 84 1011.6
20260905023020 22 277 6.4 12.9 0.00 0.00 0.00 84 1011.6
20260905021516 22 231 3.2 9.7 0.00 0.00 0.00 83 1011.7
20260905020015 22 222 1.6 12.9 0.00 0.00 0.00 81 1011.9
20260905014513 22 265 0.0 9.7 0.00 0.00 0.00 79 1011.9
20260905013013 23 259 4.8 12.9 0.00 0.00 0.00 78 1011.9
20260905011511 24 244 4.8 14.5 0.00 0.00 0.00 74 1011.9
20260905010012 24 272 4.8 12.9 0.00 0.00 0.00 73 1012.1
20260905004510 25 260 8.0 14.5 0.00 0.00 0.00 71 1012.1
20260905003009 25 275 6.4 12.9 0.00 0.00 0.00 71 1012.2
20260905001509 25 256 4.8 11.3 0.00 0.00 0.00 70 1012.2
20260905000008 25 221 4.8 14.5 0.00 0.00 0.00 70 1012.3
20260904234507 25 254 6.4 17.7 0.00 0.00 0.00 70 1012.2
20260904233007 25 192 8.0 14.5 0.00 0.00 0.00 70 1012.2
20260904231507 25 205 9.7 17.7 0.00 0.00 0.00 70 1012.2
20260904230005 25 213 8.0 16.1 0.00 0.00 0.00 70 1012.3
20260904224505 25 196 8.0 16.1 0.00 0.00 0.00 69 1012.4
20260904223004 26 223 8.0 16.1 0.00 0.00 0.00 68 1012.5
20260904221502 26 219 6.4 17.7 0.00 0.00 0.00 68 1012.5
20260904220003 25 250 6.4 16.1 0.00 0.00 0.00 70 1012.5
20260904214501 25 240 6.4 17.7 0.00 0.00 0.00 70 1012.5
20260904213001 25 244 4.8 16.1 0.00 0.00 0.00 70 1012.6
20260904211603 25 214 8.0 16.1 0.00 0.00 0.00 70 1012.7
20260904210105 25 218 9.7 16.1 0.00 0.00 0.00 71 1012.8
20260904204559 25 232 9.7 17.7 0.00 0.00 0.00 70 1012.8
20260904203058 25 165 6.4 19.3 0.00 0.00 0.00 71 1012.9
20260904201624 25 187 8.0 16.1 0.00 0.00 0.00 70 1013.0
20260904200100 25 182 9.7 19.3 0.00 0.00 0.00 70 1013.1
20260904194605 26 177 8.0 14.5 0.00 0.00 0.00 70 1013.2
20260904193053 25 190 6.4 14.5 0.00 0.00 0.00 70 1013.3
20260904191651 25 209 8.0 16.1 0.00 0.00 0.00 71 1013.6
20260904190049 25 244 6.4 16.1 0.00 0.00 0.00 71 1013.7
20260904184548 25 208 8.0 16.1 0.00 0.00 0.00 69 1013.9
20260904183047 25 228 6.4 16.1 0.00 0.00 0.00 70 1013.9
20260904181546 25 180 9.7 16.1 0.00 0.00 0.00 70 1014.0
20260904180047 25 184 9.7 16.1 0.00 0.00 0.00 69 1013.9
20260904174547 25 210 6.4 16.1 0.00 0.00 0.00 71 1014.1
20260904173056 25 175 9.7 16.1 0.00 0.00 0.00 70 1014.0
20260904171543 24 194 8.0 14.5 0.00 0.00 0.00 71 1013.9
20260904170039 24 239 6.4 14.5 0.00 0.00 0.00 73 1013.8
20260904164537 24 206 4.8 9.7 0.00 0.00 0.00 71 1013.5
20260904163034 24 205 3.2 9.7 0.00 0.00 0.00 72 1013.4
20260904161535 24 157 1.6 11.3 0.00 0.00 0.00 71 1013.3
20260904160032 24 150 0.0 4.8 0.00 0.00 0.00 72 1013.2
20260904154525 23 155 0.0 6.4 0.00 0.00 0.00 74 1013.1
20260904153021 22 145 1.6 9.7 0.00 0.00 0.00 76 1013.2
20260904151518 22 117 0.0 6.4 0.00 0.00 0.00 77 1013.1
20260904150026 21 110 1.6 6.4 0.00 0.00 0.00 81 1013.0
20260904144510 20 105 3.2 9.7 0.00 0.00 0.00 85 1013.0
20260904143006 18 107 1.6 9.7 0.00 0.00 0.00 90 1013.0
20260904141502 18 98 1.6 6.4 0.00 0.00 0.00 90 1012.8
20260904140105 18 269 0.0 4.8 0.00 0.00 0.00 91 1012.6
20260904134613 18 269 0.0 0.0 0.00 0.00 0.00 91 1012.5
20260904133058 17 269 0.0 0.0 0.00 0.00 0.00 91 1012.4
20260904131558 18 269 0.0 0.0 0.00 0.00 0.00 91 1012.4
20260904130056 18 269 0.0 0.0 0.00 0.00 0.00 91 1012.3
20260904124555 18 269 0.0 0.0 0.00 0.00 0.00 91 1012.3
20260904123054 18 269 0.0 0.0 0.00 0.00 0.00 91 1012.2
20260904121554 18 269 0.0 0.0 0.00 0.00 0.00 91 1012.1
20260904120104 18 269 0.0 0.0 0.00 0.00 0.00 91 1012.0
20260904114554 18 269 0.0 0.0 0.00 0.00 0.00 91 1012.1
20260904113052 18 269 0.0 0.0 0.00 0.00 0.00 91 1012.1
20260904111551 18 269 0.0 0.0 0.00 0.00 0.00 91 1012.0
20260904110051 18 269 0.0 4.8 0.00 0.00 0.00 92 1012.1
20260904104550 18 269 0.0 3.2 0.00 0.00 0.00 91 1012.1
20260904103048 18 269 0.0 0.0 0.00 0.00 0.00 91 1011.9
20260904101547 18 269 0.0 0.0 0.00 0.00 0.00 91 1011.9
20260904100050 18 269 0.0 0.0 0.00 0.00 0.00 91 1011.9
20260904094551 18 269 0.0 0.0 0.00 0.00 0.00 91 1012.0
20260904093047 18 269 0.0 6.4 0.00 0.00 0.00 92 1012.0